Погода в Воронеже

Погода в Воронеже : погода сейчас, прогноз погоды и архив. Всё, что Вы хотите узнать о погоде в Воронеже!

Хотите узнать прогноз погоды в Воронеже? Тогда Вам сюда: Погода в Воронеже

Поиск расширенной информации на нашем сайте:

Другие новости

Новости СМИ2

Главная страница сайта

Новости сайта

03.07.2017

Напоминаем, что на нашем специализированном сайте Метеоцентр.Азия вы можете получить высокодетализированные автоматические прогнозы погоды по пунктам России, СНГ и мира в авиационном формате (включающие направление и скорость ветра, видимость, явления погоды, количество и форму облачности, нижнюю и верхнюю границу облачности).


Погода в Воронеже - сегодня

Время (UTC), дата Ветер
(°,м/с) 
Видим.   Явления Облачность Т
(°С)
Тd
(°С)
f(%) Тe
(°С)
Pmin
(гПа)
dP
(гПа)
Po
(мм)
O2
(г/м3)
Тmin Tmax R s Состояние
почвы
03 21.09.17 050 (СВ) 10 км    3/0 средняя, верхняя 
[Ac lent|Ci fib]
+11.6 +7.9 78 +12  1020.8  0.1  752  289  +11.6         
06 21.09.17 040 (СВ) 10 км    6/0 средняя, верхняя 
[Ac trans|Ci fib]
+13.8 +8.4 70 +14  1020.7  -0.1  752  287  +10.7         
09 21.09.17 040 (СВ) 10 км    8/0 верхняя 
[Ci fib]
+20.2 +10.2 53 +22  1019.9  -0.3  752  280           
12 21.09.17 070 (В) 10 км    4/0 верхняя 
[Cc]
+24.4 +10.1 40 +26  1018.9  -0.7  751  276           
15 21.09.17 070 (В) 10 км    ясно 
+22.1 +9 43 +22  1019  751  279    +24.4       
18 21.09.17 060 (СВ) 10 км    ясно 
+18.6 +7.9 50 +19  1020.3  0.9  752  282           
21 21.09.17 070 (В) 10 км    4/0 средняя 
[Ac trans]
+16.7 +7.6 55 +18  1021.1  0.7  753  284           
00 22.09.17 060 (СВ) 10 км    ясно 
+14.2 +8.2 67 +14  1021.7  0.5  753  287           
03 22.09.17 080 (В) 10 км    ясно 
+12.5 +7.8 73 +12  1022.9  1.1  754  289  +12.5         
06 22.09.17 080 (В) 10 км    ясно 
+14 +7 63 +15  1023.7  0.9  754  288           
09 22.09.17 080 (В) 10 км    ясно 
+18.6 +7.1 47 +20  1023.9  0.3  755  284           
12 22.09.17 080 (В) 4{10}  10 км    ясно 
+20 +6.5 41 +20  1023.9  0.2  755  282           
15 22.09.17 090 (В) 4{12}  10 км    ясно 
+17.2 +4 41 +17  1025  0.8  755  286    +20       
18 22.09.17 090 (В) 10 км    ясно 
+14 +1.9 44 +14  1026.7  1.4  757  290           
21 22.09.17 090 (В) 10 км    ясно 
+11.8 +1.4 49 +12  1027.9  757  292           
00 23.09.17 110 (В) 10 км    ясно 
+9.4 +2.9 64 +8  1029.3  1.2  758  295           
03 23.09.17 090 (В) 10 км    ясно 
+7.2 +3.2 76 +7  1029.9  0.5  759  297  +7.2         
06 23.09.17 110 (В) 10 км    ясно 
+10.3 +6.2 76 +10  1030.5  0.8  759  294           
09 23.09.17 110 (В) 10 км    ясно 
+17.2 +7.2 52 +17  1029.8  -0.3  759  287           
12 23.09.17 090 (В) 4{11}  10 км    ясно 
+19.5 +5.8 41 +20  1029.3  -0.4  759  284           
15 23.09.17 080 (В) 10 км    ясно 
+18 +5.8 45 +19  1029.3  759  286    +19.5       
18 23.09.17 060 (СВ) 10 км    ясно 
+13 +6.8 66 +14  1030.5  0.9  759  291           
21 23.09.17 060 (СВ) 10 км    ясно 
+11 +6.6 74 +11  1031  0.3  760  293           
00 24.09.17 070 (В) 10 км    ясно 
+9.2 +5.5 78 +10  1031.2  760  295           
03 24.09.17 050 (СВ) 10 км    ясно 
+7.2 +5.4 88 +8  1031.8  0.5  760  298  +7.2         
Время (UTC), дата Ветер
(°,м/с) 
Видим.   Явления Облачность Т
(°С)
Тd
(°С)
f(%) Тe
(°С)
Pmin
(гПа)
dP
(гПа)
Po
(мм)
O2
(г/м3)
Тmin Tmax R s Состояние
почвы

Для получения пояснительной информации подведите курсор к названию столбца.

ПОГОДА в Воронеже - архив

Всё, что Вы хотите узнать о погоде в Воронеже - удобно и подробно!

Выберите нужную дату (начиная с 1 января 2015* года) и нажмите кнопку "Найти".
Будут отображены архивные сводки погоды по пункту Воронеж, начиная с указанной даты.


Отображать данные в формате CSV (для использования в таблицах Excel)


Внимание! Наш архив погоды предназначен исключительно для личного некоммерческого использования в познавательных целях. Если Вам необходимы официальные справки о состоянии погоды (для производственных, юридических, коммерческих и т.п. целей), обращайтесь в органы Росгидромета.

*Примечание: данная дата относится к архиву по метеостанциям СССР (Россия, СНГ, Балтия).
Архив по метеостанциям Зарубежной Европы и Азии (кроме Китая) хранится 10 дней, по другим регионам земного шара (Китай, Африка, Америка, Австралия, Океания) - 1 день.

Воронеж - район местоположения метеостанции


Название, широта, долгота, высота метеостанции:
Воронеж (город) 51.6°ш. 39.2°д. 104 м над ур. моря [Российская Федерация]

Дополнительная информация

В oтличие oт бoльшинства пoгoдных сайтoв мы публикуем пoдрoбную метеoинфoрмацию в детальнoм прoфессиoнальнoм фoрмате.

Характеристики температуры и влажнoсти вoздуха измеряются на высoте 2 м в тени вдали oт зданий и деревьев.
Скoрoсть ветра измеряется на высoте 10 м (на урoвне рoста челoвека скoрoсть ветра ниже в 1.5-2 раза). Если метеoстанция нахoдится в гoрoде или в лесу, тo скoрoсть ветра занижена на 2-4 м/с пo сравнению с oткрытым местoм. Скoрoсть ветра над акватoриями крупных рек и oзёр, а также на вершинах хoлмoв на 2-5 м/с выше, чем в oбычных услoвиях.
Атмoсфернoе давление в разных тoчках местнoсти мoжет значительнo oтличаться oт давления на метеoстанции, в зависимoсти oт услoвий рельефа (при пoдъёме на 10 м давление пoнижается примернo на 1 мм рт.ст.).